Home   Weather   Houston   Past weeks
Flag for USA

Past Weather in Houston, Pennsylvania, USA — Yesterday and Last 2 Weeks

Now
45 °F

Overcast.


Feels Like: 39 °F
Forecast: 47 / 32 °F
Wind: 12 mph from West

Location: Allegheny County Airport

Current Time: Dec 6, 2019 at 4:03:19 pm

Latest Report: Dec 6, 2019 at 3:23 pm


Visibility: 10 mi

Pressure: 30.03 "Hg

Humidity: 65%

Dew Point: 34 °F

Location of HoustonLocation

Past Weather in Houston — Graph

°F

Houston Temperature Yesterday

Maximum temperature yesterday: 38 °F (at 1:53 pm)
Minimum temperature yesterday: 31 °F (at 11:53 pm)
Average temperature yesterday: 34 °F

High & Low Weather Summary for the Past Weeks

 TemperatureHumidityPressure
High62 °F (Nov 27, 1:53 pm)100% (Nov 23, 7:59 pm)30.43 "Hg (Nov 23, 7:59 pm)
Low26 °F (Nov 23, 6:53 am)45% (Nov 21, 7:53 pm)29.40 "Hg (Dec 1, 12:18 pm)
Average38 °F79%29.84 "Hg
* Reported Nov 21 2:53 pm — Dec 6 2:53 pm, Houston. Weather by CustomWeather, © 2019

Note: Actual official high and low records may vary slightly from our data, if they occured in-between our weather recording intervals... More about our weather records

Houston Weather History for the Previous 24 Hours

Scroll right to see more
 ConditionsComfort  
Time TempWeatherWind HumidityBarometerVisibility
2:53 pm
Fri, Dec 6
45 °FOvercast.8 mph65%30.05 "Hg10 mi
1:53 pm45 °FOvercast.12 mph71%30.03 "Hg10 mi
12:53 pm44 °FOvercast.14 mph71%30.03 "Hg10 mi
11:53 am44 °FLight rain. Mostly cloudy.18 mph65%30.03 "Hg7 mi
10:53 am45 °FOvercast.9 mph53%30.02 "Hg10 mi
9:53 am42 °FMore clouds than sun.10 mph55%30.03 "Hg10 mi
8:53 am38 °FOvercast.13 mph63%30.03 "Hg10 mi
7:53 am37 °FOvercast.12 mph62%30.04 "Hg10 mi
6:53 am36 °FPassing clouds.12 mph64%30.05 "Hg10 mi
5:53 am35 °FOvercast.9 mph64%30.06 "Hg10 mi
4:53 am33 °FOvercast.13 mph70%30.06 "Hg10 mi
3:53 am32 °FOvercast.10 mph73%30.07 "Hg10 mi
2:53 am32 °FPassing clouds.13 mph69%30.09 "Hg10 mi
1:53 am31 °FOvercast.9 mph76%30.10 "Hg10 mi
12:53 am30 °FOvercast.9 mph79%30.11 "Hg10 mi
11:53 pm
Thu, Dec 5
31 °FClear.6 mph73%30.13 "Hg10 mi
10:53 pm33 °FClear.7 mph66%30.13 "Hg10 mi
9:53 pm34 °FClear.6 mph67%30.13 "Hg10 mi
8:53 pm35 °FClear.7 mph64%30.13 "Hg10 mi
7:53 pm35 °FPassing clouds.6 mph64%30.14 "Hg10 mi
6:53 pm36 °FClear.6 mph62%30.13 "Hg10 mi
5:53 pm37 °FClear.5 mph60%30.11 "Hg10 mi
4:53 pm38 °FOvercast.6 mph60%30.09 "Hg10 mi
Weather by CustomWeather, © 2019

See weather overview

Advertising